Flag for Germany Weather past 2 weeks in Marburg, Hesse, Germany

Now
36 °F

Passing clouds.


Feels Like: 36 °F
Forecast: 31 / 57 °F
Wind: 2 mph from Northeast

Location: Giessen

Current Time: Apr 18, 2015 at 6:58:47 AM

Latest Report: Apr 18, 2015 at 6:00 AM


Visibility: 22 mi

Pressure: 30.26 "Hg

Humidity: 86%

Dew point: 33 °F

Location of MarburgLocation

Historic Weather in Marburg — Graph

°F

Marburg temperature yesterday

Maximum temperature yesterday: 55 °F (at 2:00 PM)
Minimum temperature yesterday: 43 °F (at 7:00 AM)
Average temperature yesterday: 48 °F

Past Weeks' High & Low Weather Summary

 TemperatureHumidityPressure
High74 °F (Apr 15, 5:00 PM)98% (Apr 9, 8:00 AM)30.67 "Hg (Apr 9, 8:00 AM)
Low27 °F (Apr 7, 7:00 AM)27% (Apr 10, 7:00 PM)29.86 "Hg (Apr 16, 6:00 PM)
Average48 °F64%30.25 "Hg
* Reported Apr 3 5:00 AM — Apr 18 5:00 AM, Marburg, Weather by CustomWeather, © 2015

Note: Actual official high and low records may vary slightly from our data, if they occured in-between our weather recording intervals... More about our weather records

Advertising

Marburg weather history for previous 24 hours

 ConditionsComfort  
Time TempWeatherWind HumidityBarometerVisibility
5:00 AM
Sat, Apr 18
37 °FClear.2 mph81%30.26 "Hg22 mi
4:00 AM39 °FClear.2 mph79%30.24 "Hg31 mi
3:00 AM39 °FPassing clouds.3 mph75%30.23 "Hg28 mi
2:00 AM41 °FPassing clouds.3 mph70%30.22 "Hg28 mi
1:00 AM42 °FClear.5 mph65%30.20 "Hg34 mi
12:00 AM43 °FClear.5 mph63%30.18 "Hg31 mi
11:00 PM
Fri, Apr 17
44 °FClear.2 mph61%30.16 "Hg37 mi
10:00 PM44 °FPassing clouds.3 mph61%30.14 "Hg37 mi
9:00 PM47 °FPassing clouds.3 mph54%30.11 "Hg40 mi
8:00 PM49 °FScattered clouds.5 mph48%30.08 "Hg43 mi
7:00 PM51 °FPassing clouds.8 mph48%30.05 "Hg34 mi
6:00 PM52 °FOvercast.8 mph47%30.03 "Hg31 mi
5:00 PM53 °FOvercast.9 mph48%30.02 "Hg28 mi
4:00 PM53 °FOvercast.8 mph51%30.01 "Hg22 mi
3:00 PM53 °FOvercast.7 mph45%30.01 "Hg43 mi
2:00 PM55 °FOvercast.8 mph47%30.00 "Hg28 mi
1:00 PM54 °FSunny.8 mph46%30.01 "Hg31 mi
12:00 PM52 °FPartly sunny.6 mph51%30.00 "Hg31 mi
11:00 AM51 °FOvercast.6 mph61%30.00 "Hg28 mi
10:00 AM48 °FScattered clouds.7 mph63%29.99 "Hg25 mi
9:00 AM44 °FOvercast.5 mph70%30.01 "Hg28 mi
8:00 AM43 °FOvercast.6 mph70%29.98 "Hg28 mi
7:00 AM43 °FOvercast.7 mph72%29.97 "Hg25 mi
6:00 AM43 °FOvercast.3 mph71%29.96 "Hg22 mi
Weather by CustomWeather, © 2015

See weather overviewHow to use our weather pages